Tracking 19242 objects as of 20-Sep-2018
HD Live streaming from Space Station
objects crossing your sky now

SL-16 DEB

Track SL-16 DEB now!
10-day predictions


NORAD ID: 24284
Int'l Code: 1995-058G
Perigee: 829.6 km
Apogee: 844.3 km
Inclination: 70.9 °
Period: 101.5 minutes
Semi major axis: 7207 km
RCS: 0.041 m2 (small)
Launch date: October 31, 1995
Source: Commonwealth of Independent States (former USSR) (CIS)
Launch site: TYURATAM MISSILE AND SPACE COMPLEX (TTMTR)

Note: This is SATELLITE DEBRIS
aabbcc
Your satellite tracking list
Your tracking list is empty




NASA's NSSDC Master Catalog

Two Line Element Set (TLE):
1 24284U 95058G   18263.19028815 -.00000086  00000-0 -17840-4 0  9991
2 24284  70.8627 301.3791 0010200  68.1231 292.0976 14.18680375182997
Source of the keplerian elements: AFSPC